Dewpoint
66 65 68 68 67 67 67 67 67 67 66 65 64 65 65 64 64 63 63 63 61 60 60 60 59 59 59 60 60 60 51 45
67 66 63 64 64 66 66 66 66 66 65 64 63 63 63 63 63 61 62 61 60 59 59 59 59 59 57 57 57 58 45 43
63 59 60 60 60 63 65 66 66 64 63 63 61 56 58 58 61 62 61 60 58 57 56 56 57 58 56 54 57 44 43 41
58 59 59 57 52 57 57 58 57 59 58 59 59 59 60 56 57 60 59 58 57 55 56 54 53 45 44 50 43 45 41 40
57 60 59 54 55 54 54 58 58 59 61 62 63 59 60 59 55 54 55 56 51 49 48 46 49 47 45 46 45 44 41 40
56 57 57 57 53 53 56 57 59 61 62 63 62 61 60 57 52 53 53 50 51 48 47 50 48 47 46 46 46 44 41 41
53 55 57 58 58 58 60 61 62 63 64 62 59 59 62 57 54 51 51 49 48 49 48 47 48 46 45 45 44 44 44 41
53 54 57 58 59 62 64 64 62 61 62 63 62 61 61 55 55 50 50 50 49 46 46 45 45 45 44 44 42 40 40 41
54 57 59 60 61 59 58 57 57 59 61 62 60 60 58 58 55 52 50 50 49 47 47 46 44 41 40 39 37 36 34 34
57 56 59 60 58 55 57 60 60 59 60 59 56 56 56 54 54 53 48 48 47 47 44 41 40 39 38 37 32 31 34 34
58 59 60 60 60 60 60 59 57 57 54 55 53 51 51 50 48 48 49 46 46 43 42 41 38 36 31 32 34 30 33 28
59 60 60 60 60 59 57 56 55 53 50 49 49 48 49 48 48 49 46 44 43 43 43 39 36 33 28 32 35 33 32 35
59 61 60 58 56 55 54 53 50 50 48 49 49 48 47 48 46 46 45 42 43 43 39 38 34 35 32 32 33 37 36 34
59 59 59 57 55 54 52 50 50 48 48 49 47 47 46 45 46 43 43 41 40 39 41 37 35 35 32 31 29 28 28 31
59 59 58 56 54 51 50 51 50 47 46 46 45 46 44 43 43 42 41 39 36 39 39 38 34 34 35 31 27 26 27 28
58 57 55 53 52 49 50 45 44 46 46 45 45 45 43 41 40 41 41 40 40 39 35 38 37 33 32 28 32 30 25 23
55 54 50 50 50 49 49 46 48 47 46 46 46 45 44 40 40 42 42 40 40 40 40 38 35 33 31 29 29 27 27 25
54 49 47 49 48 49 48 49 45 43 42 40 35 35 36 37 37 39 40 40 40 39 39 38 37 37 35 33 29 27 26 27
51 47 46 48 49 48 48 46 41 38 37 35 36 34 34 35 37 39 37 37 37 37 40 39 38 37 38 35 30 31 29 27
46 45 45 47 46 43 41 37 36 36 37 36 33 32 34 36 35 35 35 35 35 37 38 39 39 39 38 35 32 33 31 29
Lifted_Index
-6 -6 -6 -6 -5 -4 -3 -3 -2 -1 -0 1 1 1 1 1 1 0 0 1 1 2 3 3 4 5 6 6 6 5 4 4
-6 -5 -5 -5 -4 -3 -3 -2 -2 -1 0 1 1 1 1 1 1 1 1 1 2 3 4 5 5 5 6 6 6 5 5 5
-5 -5 -4 -3 -2 -2 -1 -1 -1 -0 1 1 1 1 1 1 2 2 2 2 3 5 6 6 6 6 6 6 6 5 5 5
-4 -4 -3 -2 -1 -0 -0 -0 -1 -1 -0 -1 -1 -1 -1 0 2 2 2 3 4 5 5 6 5 5 6 6 6 5 5 5
-3 -3 -2 -0 0 0 -0 -1 -1 -2 -2 -2 -2 -2 -2 -1 1 1 2 2 3 4 5 5 5 5 5 5 5 5 5 5
-1 -1 -1 -0 -0 -1 -1 -2 -2 -3 -3 -3 -3 -3 -2 -1 -0 1 1 2 3 4 4 5 5 5 5 5 5 5 5 5
-0 -0 -1 -1 -1 -2 -2 -2 -3 -3 -3 -3 -3 -3 -2 -1 -0 1 1 2 3 4 5 5 5 5 5 5 5 5 5 5
-1 -1 -1 -2 -2 -2 -2 -2 -2 -2 -3 -3 -2 -2 -1 -1 0 1 2 3 4 4 5 5 5 5 5 5 6 6 6 7
-1 -2 -2 -2 -2 -1 -1 -0 -1 -1 -1 -1 -1 -1 -0 0 1 2 2 3 4 4 5 5 5 5 6 6 7 8 8 8
-2 -2 -2 -2 -1 0 1 1 1 0 -0 -0 -0 0 1 1 2 2 3 4 4 5 5 6 6 7 7 8 9 10 10 10
-3 -3 -2 -1 0 1 1 1 1 1 1 1 1 1 2 2 3 3 4 4 5 5 6 7 8 8 9 9 9 10 10 10
-3 -3 -2 -1 -0 1 1 1 1 2 2 2 2 2 3 4 4 4 4 5 6 6 7 8 9 9 10 9 9 9 9 9
-3 -3 -2 -1 -1 0 1 1 2 2 3 3 4 4 4 4 5 5 5 5 6 7 8 8 9 10 10 10 10 9 9 9
-3 -3 -2 -2 -1 0 1 2 2 3 4 4 5 5 5 5 5 5 6 6 7 8 8 9 9 10 10 10 10 10 10 10
-3 -3 -2 -2 -0 1 2 2 3 4 4 5 5 6 6 6 6 6 7 7 8 8 9 9 10 10 11 11 11 11 11 11
-3 -2 -1 -0 1 2 2 3 3 4 4 5 6 6 6 7 7 7 8 8 8 8 9 9 10 11 11 11 11 12 12 12
-2 -1 1 1 2 2 3 3 4 4 5 6 6 7 7 7 8 8 8 8 8 8 9 9 10 11 11 11 12 12 12 12
0 1 2 3 3 3 3 4 5 6 6 7 8 8 8 8 8 8 8 8 8 9 9 9 10 10 11 11 12 12 12 12
2 2 3 3 4 4 5 6 7 7 8 8 9 9 9 9 9 9 9 9 9 9 9 9 10 10 10 11 11 11 11 10
3 3 4 4 4 5 6 7 8 8 8 9 9 9 9 9 10 10 10 10 10 9 9 9 9 10 10 10 10 10 9 9